Time,TemperatureF,DewpointF,PressureIn,WindDirection,WindDirectionDegrees,WindSpeedMPH,WindSpeedGustMPH,Humidity,HourlyPrecipIn,Conditions,Clouds,dailyrainin,SoftwareType,DateUTC
2014-07-23 00:05:00,98.2,32.0,28.47,NW,310,0.0,0.0,3,0.00,Rain,NA,0.00,,2014-07-23 07:05:00,
2014-07-23 00:10:00,98.4,32.0,28.47,NW,310,0.0,0.0,3,0.00,Rain,NA,0.00,,2014-07-23 07:10:00,
2014-07-23 00:20:00,98.4,32.0,28.47,NW,318,0.0,3.6,3,0.00,Rain,NA,0.00,,2014-07-23 07:20:00,
2014-07-23 00:30:00,98.4,32.0,28.47,WSW,253,0.0,0.0,3,0.00,Rain,NA,0.00,,2014-07-23 07:30:00,
2014-07-23 00:35:00,98.1,32.0,28.47,WSW,253,0.0,0.0,3,0.00,Rain,NA,0.00,,2014-07-23 07:35:00,
2014-07-23 00:40:00,97.9,32.0,28.47,WSW,253,0.0,0.0,3,0.00,Rain,NA,0.00,,2014-07-23 07:40:00,
2014-07-23 00:50:00,97.5,32.0,28.47,WSW,253,0.0,0.0,3,0.00,Rain,NA,0.00,,2014-07-23 07:50:00,
2014-07-23 00:55:00,97.3,32.0,28.47,WSW,253,0.0,0.0,3,0.00,Rain,NA,0.00,,2014-07-23 07:55:00,
2014-07-23 01:05:00,96.6,32.0,28.47,WSW,253,0.0,0.0,4,0.00,Rain,NA,0.00,,2014-07-23 08:05:00,
2014-07-23 01:10:00,96.4,32.0,28.47,WSW,253,0.0,0.0,4,0.00,Rain,NA,0.00,,2014-07-23 08:10:00,
2014-07-23 01:15:00,96.3,32.0,28.47,WSW,253,0.0,0.0,4,0.00,Rain,NA,0.00,,2014-07-23 08:15:00,
2014-07-23 01:20:00,96.3,32.0,28.47,WSW,253,0.0,0.0,4,0.00,Rain,NA,0.00,,2014-07-23 08:20:00,
2014-07-23 01:25:00,96.3,32.0,28.47,WSW,253,0.0,0.0,4,0.00,Rain,NA,0.00,,2014-07-23 08:25:00,
2014-07-23 01:30:00,95.9,32.0,28.47,SE,127,0.0,0.0,4,0.00,Rain,NA,0.00,,2014-07-23 08:30:00,
2014-07-23 01:40:00,95.0,32.0,28.47,SE,127,0.0,0.0,4,0.00,Rain,NA,0.00,,2014-07-23 08:40:00,
2014-07-23 01:45:00,94.5,32.0,28.47,SE,125,0.0,0.0,4,0.00,Rain,NA,0.00,,2014-07-23 08:45:00,
2014-07-23 01:55:00,93.9,32.0,28.47,SE,128,0.0,0.0,4,0.00,Rain,NA,0.00,,2014-07-23 08:55:00,
2014-07-23 02:00:00,93.6,32.0,28.47,SE,128,0.0,0.0,4,0.00,Rain,NA,0.00,,2014-07-23 09:00:00,
2014-07-23 02:10:00,92.8,32.0,28.47,SE,128,0.0,0.0,4,0.00,Rain,NA,0.00,,2014-07-23 09:10:00,
2014-07-23 02:20:00,92.1,32.0,28.47,SE,128,0.0,0.0,4,0.00,Rain,NA,0.00,,2014-07-23 09:20:00,
2014-07-23 02:30:00,91.8,32.0,28.47,SE,128,0.0,0.0,4,0.00,Rain,NA,0.00,,2014-07-23 09:30:00,
2014-07-23 02:40:00,91.6,32.0,28.47,South,183,0.0,0.0,4,0.00,Rain,NA,0.00,,2014-07-23 09:40:00,
2014-07-23 02:45:00,91.4,32.0,28.47,WSW,238,0.0,0.0,4,0.00,Rain,NA,0.00,,2014-07-23 09:45:00,
2014-07-23 02:50:00,91.4,32.0,28.47,WSW,239,0.0,0.0,4,0.00,Rain,NA,0.00,,2014-07-23 09:50:00,
2014-07-23 03:00:00,91.0,32.0,28.47,WSW,257,0.0,0.0,5,0.00,Rain,NA,0.00,,2014-07-23 10:00:00,
2014-07-23 03:05:00,90.7,32.0,28.47,WSW,257,0.0,0.0,5,0.00,Rain,NA,0.00,,2014-07-23 10:05:00,
2014-07-23 03:15:00,90.7,32.0,28.47,WSW,257,0.0,0.0,5,0.00,Rain,NA,0.00,,2014-07-23 10:15:00,
2014-07-23 03:20:00,90.9,32.0,28.47,WNW,294,0.0,0.0,5,0.00,Rain,NA,0.00,,2014-07-23 10:20:00,
2014-07-23 03:30:00,90.9,32.0,28.47,WNW,294,0.0,0.0,5,0.00,Rain,NA,0.00,,2014-07-23 10:30:00,
2014-07-23 03:35:00,90.7,32.0,28.47,WNW,294,0.0,0.0,5,0.00,Rain,NA,0.00,,2014-07-23 10:35:00,
2014-07-23 03:40:00,90.7,32.0,28.47,WNW,294,0.0,0.0,5,0.00,Rain,NA,0.00,,2014-07-23 10:40:00,
2014-07-23 03:50:00,90.5,32.0,28.47,WNW,294,0.0,0.0,5,0.00,Rain,NA,0.00,,2014-07-23 10:50:00,
2014-07-23 03:55:00,90.5,32.0,28.47,WNW,294,0.0,0.0,5,0.00,Rain,NA,0.00,,2014-07-23 10:55:00,
2014-07-23 04:05:00,90.5,32.0,28.47,WNW,294,0.0,0.0,5,0.00,Rain,NA,0.00,,2014-07-23 11:05:00,
2014-07-23 04:15:00,91.0,32.0,28.47,WNW,294,0.0,0.0,5,0.00,Rain,NA,0.00,,2014-07-23 11:15:00,
2014-07-23 04:20:00,91.0,32.0,28.47,WNW,294,0.0,0.0,5,0.00,Rain,NA,0.00,,2014-07-23 11:20:00,
2014-07-23 04:25:00,91.2,32.0,28.47,WNW,294,0.0,0.0,5,0.00,Rain,NA,0.00,,2014-07-23 11:25:00,
2014-07-23 04:30:00,91.4,32.0,28.47,WNW,294,0.0,0.0,4,0.00,Rain,NA,0.00,,2014-07-23 11:30:00,
2014-07-23 04:40:00,91.2,32.0,28.47,WNW,294,0.0,0.0,5,0.00,Rain,NA,0.00,,2014-07-23 11:40:00,
2014-07-23 04:50:00,90.7,32.0,28.47,WNW,294,0.0,0.0,5,0.00,Rain,NA,0.00,,2014-07-23 11:50:00,
2014-07-23 04:55:00,90.7,32.0,28.47,WNW,294,0.0,0.0,5,0.00,Rain,NA,0.00,,2014-07-23 11:55:00,
2014-07-23 05:00:00,90.7,32.0,28.47,WNW,294,0.0,0.0,5,0.00,Rain,NA,0.00,,2014-07-23 12:00:00,
2014-07-23 05:10:00,90.7,32.0,28.47,WNW,294,0.0,0.0,5,0.00,Rain,NA,0.00,,2014-07-23 12:10:00,
2014-07-23 05:20:00,91.0,32.0,28.47,NW,309,0.0,0.0,5,0.00,Rain,NA,0.00,,2014-07-23 12:20:00,
2014-07-23 05:30:00,90.9,32.0,28.47,SE,128,0.0,2.2,5,0.00,Rain,NA,0.00,,2014-07-23 12:30:00,
2014-07-23 05:40:00,91.4,32.0,28.47,SE,135,0.0,2.7,4,0.00,Rain,NA,0.00,,2014-07-23 12:40:00,
2014-07-23 05:45:00,91.6,32.0,28.47,ESE,119,2.2,3.2,4,0.00,Rain,NA,0.00,,2014-07-23 12:45:00,
2014-07-23 05:55:00,91.0,32.0,28.47,ESE,119,0.0,0.0,5,0.00,Rain,NA,0.00,,2014-07-23 12:55:00,
2014-07-23 06:05:00,90.7,32.0,28.47,East,79,0.0,0.0,5,0.00,Rain,NA,0.00,,2014-07-23 13:05:00,
2014-07-23 06:10:00,90.7,32.0,28.47,SE,139,0.0,0.0,5,0.00,Rain,NA,0.00,,2014-07-23 13:10:00,
2014-07-23 06:20:00,90.9,32.0,28.47,SE,139,0.0,0.0,5,0.00,Rain,NA,0.00,,2014-07-23 13:20:00,
2014-07-23 06:25:00,91.2,32.0,28.47,SE,139,0.0,0.0,5,0.00,Rain,NA,0.00,,2014-07-23 13:25:00,
2014-07-23 06:30:00,91.2,32.0,28.47,SE,139,0.0,0.0,5,0.00,Rain,NA,0.00,,2014-07-23 13:30:00,
2014-07-23 06:40:00,91.4,32.0,28.47,SE,142,0.0,2.2,7,0.00,Rain,NA,0.00,,2014-07-23 13:40:00,
2014-07-23 06:45:00,91.6,32.0,28.47,East,98,0.0,0.0,7,0.00,Rain,NA,0.00,,2014-07-23 13:45:00,
2014-07-23 06:55:00,92.1,32.0,28.47,SE,130,2.7,2.7,7,0.00,Rain,NA,0.00,,2014-07-23 13:55:00,
2014-07-23 07:05:00,92.8,32.0,28.47,ESE,120,2.2,0.0,7,0.00,Rain,NA,0.00,,2014-07-23 14:05:00,
2014-07-23 07:10:00,93.0,32.0,28.47,SE,127,2.2,4.1,7,0.00,Rain,NA,0.00,,2014-07-23 14:10:00,
2014-07-23 07:20:00,93.4,32.0,28.47,ESE,118,3.2,3.6,6,0.00,Rain,NA,0.00,,2014-07-23 14:20:00,
2014-07-23 07:30:00,93.4,32.0,28.47,ESE,103,4.9,5.4,6,0.00,Rain,NA,0.00,,2014-07-23 14:30:00,
2014-07-23 07:35:00,93.4,32.0,28.47,East,89,4.1,4.1,6,0.00,Rain,NA,0.00,,2014-07-23 14:35:00,
2014-07-23 07:40:00,93.6,32.0,28.47,ESE,118,3.6,3.6,6,0.00,Rain,NA,0.00,,2014-07-23 14:40:00,
2014-07-23 07:45:00,93.7,32.0,28.47,SE,142,3.2,3.2,6,0.00,Rain,NA,0.00,,2014-07-23 14:45:00,
2014-07-23 07:55:00,94.5,32.0,28.47,SE,128,3.2,3.6,6,0.00,Rain,NA,0.00,,2014-07-23 14:55:00,
2014-07-23 08:05:00,95.5,32.0,28.47,SE,135,2.2,0.0,4,0.00,Rain,NA,0.00,,2014-07-23 15:05:00,
2014-07-23 08:15:00,95.5,32.0,28.47,SE,124,4.5,4.5,4,0.00,Rain,NA,0.00,,2014-07-23 15:15:00,
2014-07-23 08:20:00,95.7,32.0,28.47,SE,141,3.2,3.6,4,0.00,Rain,NA,0.00,,2014-07-23 15:20:00,
2014-07-23 08:30:00,96.6,32.0,28.47,ESE,104,4.5,4.5,4,0.00,Rain,NA,0.00,,2014-07-23 15:30:00,
2014-07-23 08:40:00,97.7,32.0,28.47,SE,128,2.2,3.2,3,0.00,Rain,NA,0.00,,2014-07-23 15:40:00,
2014-07-23 08:50:00,97.7,32.0,28.47,ESE,118,3.6,0.0,3,0.00,Rain,NA,0.00,,2014-07-23 15:50:00,
2014-07-23 08:55:00,98.1,32.0,28.47,ESE,111,3.2,3.2,3,0.00,Rain,NA,0.00,,2014-07-23 15:55:00,
2014-07-23 09:00:00,98.2,32.0,28.47,ESE,112,4.5,4.5,3,0.00,Rain,NA,0.00,,2014-07-23 16:00:00,
2014-07-23 09:05:00,98.8,32.0,28.47,ESE,123,3.6,5.4,3,0.00,Rain,NA,0.00,,2014-07-23 16:05:00,
2014-07-23 09:10:00,99.3,32.0,28.47,SE,130,5.8,5.8,3,0.00,Rain,NA,0.00,,2014-07-23 16:10:00,
2014-07-23 09:15:00,99.5,32.0,28.47,ESE,115,6.8,6.8,3,0.00,Rain,NA,0.00,,2014-07-23 16:15:00,
2014-07-23 09:25:00,99.7,32.0,28.47,East,91,4.1,4.1,3,0.00,Rain,NA,0.00,,2014-07-23 16:25:00,
2014-07-23 09:35:00,101.1,32.0,28.47,ESE,118,6.3,6.3,2,0.00,Rain,NA,0.00,,2014-07-23 16:35:00,
2014-07-23 09:40:00,101.3,32.0,28.47,SE,135,3.6,4.1,2,0.00,Rain,NA,0.00,,2014-07-23 16:40:00,
2014-07-23 09:50:00,102.4,32.0,28.47,ESE,121,2.2,2.7,2,0.00,Rain,NA,0.00,,2014-07-23 16:50:00,
2014-07-23 09:55:00,102.6,32.0,28.47,ESE,117,4.1,5.4,2,0.00,Rain,NA,0.00,,2014-07-23 16:55:00,
2014-07-23 10:05:00,102.7,32.0,28.47,ESE,103,3.2,3.2,2,0.00,Rain,NA,0.00,,2014-07-23 17:05:00,
2014-07-23 10:10:00,102.7,32.0,28.47,SW,216,3.2,3.2,2,0.00,Rain,NA,0.00,,2014-07-23 17:10:00,
2014-07-23 10:20:00,104.7,32.0,28.47,SSW,197,0.0,0.0,2,0.00,Rain,NA,0.00,,2014-07-23 17:20:00,
2014-07-23 10:25:00,104.2,32.0,28.47,SE,125,2.7,5.4,2,0.00,Rain,NA,0.00,,2014-07-23 17:25:00,
2014-07-23 10:35:00,103.3,32.0,28.47,SSW,209,3.2,3.2,2,0.00,Rain,NA,0.00,,2014-07-23 17:35:00,
2014-07-23 10:40:00,103.3,32.0,28.47,SE,136,0.0,0.0,2,0.00,Rain,NA,0.00,,2014-07-23 17:40:00,
2014-07-23 10:50:00,102.7,32.0,28.47,ESE,123,0.0,0.0,2,0.00,Rain,NA,0.00,,2014-07-23 17:50:00,
2014-07-23 11:00:00,102.9,32.0,28.47,SW,217,2.7,0.0,2,0.00,Rain,NA,0.00,,2014-07-23 18:00:00,
2014-07-23 11:10:00,103.5,32.0,28.47,East,97,3.2,3.2,2,0.00,Rain,NA,0.00,,2014-07-23 18:10:00,
2014-07-23 11:20:00,104.0,32.0,28.47,SE,124,2.7,2.7,2,0.00,Rain,NA,0.00,,2014-07-23 18:20:00,
2014-07-23 11:30:00,104.2,32.0,28.47,ESE,105,2.7,3.6,2,0.00,Rain,NA,0.00,,2014-07-23 18:30:00,
2014-07-23 11:35:00,104.2,32.0,28.47,ESE,123,5.4,5.4,2,0.00,Rain,NA,0.00,,2014-07-23 18:35:00,
2014-07-23 11:45:00,104.9,32.0,28.47,ESE,112,2.2,4.5,2,0.00,Rain,NA,0.00,,2014-07-23 18:45:00,
2014-07-23 11:55:00,106.7,32.0,28.47,SE,130,2.2,0.0,2,0.00,Rain,NA,0.00,,2014-07-23 18:55:00,
2014-07-23 12:00:00,107.2,32.0,28.47,SE,128,4.5,4.5,2,0.00,Rain,NA,0.00,,2014-07-23 19:00:00,
2014-07-23 12:10:00,107.6,32.0,28.47,SW,222,0.0,0.0,2,0.00,Rain,NA,0.00,,2014-07-23 19:10:00,
2014-07-23 12:15:00,106.3,32.0,28.47,ESE,118,3.2,7.2,2,0.00,Rain,NA,0.00,,2014-07-23 19:15:00,
2014-07-23 12:20:00,106.3,32.0,28.47,ESE,122,3.2,3.2,2,0.00,Rain,NA,0.00,,2014-07-23 19:20:00,
2014-07-23 12:30:00,107.4,32.0,28.47,West,271,2.7,3.2,2,0.00,Rain,NA,0.00,,2014-07-23 19:30:00,
2014-07-23 12:40:00,109.8,32.0,28.47,SE,126,0.0,0.0,2,0.00,Rain,NA,0.00,,2014-07-23 19:40:00,
2014-07-23 12:45:00,110.7,32.0,28.47,WNW,301,2.2,2.7,2,0.00,Rain,NA,0.00,,2014-07-23 19:45:00,
2014-07-23 12:50:00,111.0,32.0,28.47,ESE,117,2.7,3.2,2,0.00,Rain,NA,0.00,,2014-07-23 19:50:00,
2014-07-23 13:00:00,111.9,32.0,28.47,SE,129,0.0,0.0,2,0.00,Rain,NA,0.00,,2014-07-23 20:00:00,
2014-07-23 13:10:00,112.3,32.0,28.47,East,94,2.2,0.0,2,0.00,Rain,NA,0.00,,2014-07-23 20:10:00,
2014-07-23 13:20:00,112.8,32.0,28.47,ESE,108,0.0,0.0,2,0.00,Rain,NA,0.00,,2014-07-23 20:20:00,
2014-07-23 13:30:00,113.2,32.0,28.47,SE,127,0.0,0.0,2,0.00,Rain,NA,0.00,,2014-07-23 20:30:00,
2014-07-23 13:35:00,113.0,32.0,28.47,SE,124,0.0,0.0,2,0.00,Rain,NA,0.00,,2014-07-23 20:35:00,
2014-07-23 13:40:00,113.0,32.0,28.47,SE,128,3.2,4.1,2,0.00,Rain,NA,0.00,,2014-07-23 20:40:00,
2014-07-23 13:50:00,114.3,32.0,28.47,East,96,2.7,5.4,2,0.00,Rain,NA,0.00,,2014-07-23 20:50:00,
2014-07-23 14:00:00,114.1,32.0,28.47,East,100,0.0,0.0,2,0.00,Rain,NA,0.00,,2014-07-23 21:00:00,
2014-07-23 14:10:00,114.8,32.0,28.47,ESE,109,0.0,2.7,2,0.00,Rain,NA,0.00,,2014-07-23 21:10:00,
2014-07-23 14:15:00,114.6,32.0,28.47,ESE,110,3.6,3.6,2,0.00,Rain,NA,0.00,,2014-07-23 21:15:00,
2014-07-23 14:20:00,114.6,32.0,28.47,East,86,0.0,3.2,2,0.00,Rain,NA,0.00,,2014-07-23 21:20:00,
2014-07-23 14:30:00,113.5,32.0,28.47,NNW,327,0.0,0.0,2,0.00,Rain,NA,0.00,,2014-07-23 21:30:00,
2014-07-23 14:35:00,111.9,32.0,28.47,NNW,329,0.0,0.0,2,0.00,Rain,NA,0.00,,2014-07-23 21:35:00,
2014-07-23 14:45:00,111.0,32.0,28.47,SSE,165,0.0,3.2,2,0.00,Rain,NA,0.00,,2014-07-23 21:45:00,
2014-07-23 14:55:00,112.5,32.0,28.47,SE,137,2.2,0.0,2,0.00,Rain,NA,0.00,,2014-07-23 21:55:00,
2014-07-23 15:05:00,113.9,32.0,28.47,ESE,108,3.6,3.6,2,0.00,Rain,NA,0.00,,2014-07-23 22:05:00,
2014-07-23 15:15:00,114.8,32.0,28.47,SE,125,0.0,2.2,2,0.00,Rain,NA,0.00,,2014-07-23 22:15:00,
2014-07-23 15:20:00,115.2,32.0,28.47,SE,130,2.7,0.0,2,0.00,Rain,NA,0.00,,2014-07-23 22:20:00,
2014-07-23 15:25:00,115.5,32.0,28.47,SW,223,0.0,0.0,2,0.00,Rain,NA,0.00,,2014-07-23 22:25:00,
2014-07-23 15:35:00,115.7,32.0,28.47,SE,128,0.0,2.2,2,0.00,Rain,NA,0.00,,2014-07-23 22:35:00,
2014-07-23 15:40:00,115.7,32.0,28.47,West,279,0.0,3.2,2,0.00,Rain,NA,0.00,,2014-07-23 22:40:00,
2014-07-23 15:45:00,116.1,32.0,28.47,SE,129,0.0,4.1,2,0.00,Rain,NA,0.00,,2014-07-23 22:45:00,
2014-07-23 15:50:00,116.1,32.0,28.47,ESE,120,2.7,3.2,2,0.00,Rain,NA,0.00,,2014-07-23 22:50:00,
2014-07-23 16:00:00,115.2,32.0,28.47,WSW,240,2.7,4.9,2,0.00,Rain,NA,0.00,,2014-07-23 23:00:00,
2014-07-23 16:05:00,114.8,32.0,28.47,NW,308,0.0,0.0,2,0.00,Rain,NA,0.00,,2014-07-23 23:05:00,
2014-07-23 16:15:00,114.8,32.0,28.47,WNW,297,0.0,2.7,2,0.00,Rain,NA,0.00,,2014-07-23 23:15:00,
2014-07-23 16:20:00,114.8,32.0,28.47,WNW,289,2.7,3.6,2,0.00,Rain,NA,0.00,,2014-07-23 23:20:00,
2014-07-23 16:30:00,114.3,32.0,28.47,ESE,103,2.2,0.0,2,0.00,Rain,NA,0.00,,2014-07-23 23:30:00,
2014-07-23 16:40:00,114.1,32.0,28.47,NE,52,2.2,2.2,2,0.00,Rain,NA,0.00,,2014-07-23 23:40:00,
2014-07-23 16:45:00,113.5,32.0,28.47,NNE,17,0.0,3.6,2,0.00,Rain,NA,0.00,,2014-07-23 23:45:00,
2014-07-23 16:50:00,113.4,32.0,28.47,NW,304,0.0,3.6,2,0.00,Rain,NA,0.00,,2014-07-23 23:50:00,
2014-07-23 16:55:00,112.8,32.0,28.47,WNW,300,0.0,0.0,2,0.00,Rain,NA,0.00,,2014-07-23 23:55:00,
2014-07-23 17:00:00,112.3,32.0,28.47,NNE,14,0.0,0.0,2,0.00,Rain,NA,0.00,,2014-07-24 00:00:00,
2014-07-23 17:10:00,112.1,32.0,28.47,SW,232,2.2,2.2,2,0.00,Rain,NA,0.00,,2014-07-24 00:10:00,
2014-07-23 17:15:00,111.7,32.0,28.47,NW,304,3.2,4.1,2,0.00,Rain,NA,0.00,,2014-07-24 00:15:00,
2014-07-23 17:25:00,110.5,32.0,28.47,NW,315,2.2,2.7,2,0.00,Rain,NA,0.00,,2014-07-24 00:25:00,
2014-07-23 17:30:00,109.9,32.0,28.47,SSW,196,0.0,0.0,2,0.00,Rain,NA,0.00,,2014-07-24 00:30:00,
2014-07-23 17:35:00,109.9,32.0,28.47,WNW,282,2.2,3.2,2,0.00,Rain,NA,0.00,,2014-07-24 00:35:00,
2014-07-23 17:40:00,109.6,32.0,28.47,West,280,0.0,2.7,2,0.00,Rain,NA,0.00,,2014-07-24 00:40:00,